Location: Archamps
(46.1365°N, 6.1329°E)
Time: 06:07:56
(UTC+00:00)

Cosmos 1536 Rocket - Pass Details

Date: 28 January 2023
Orbit: 605 x 630 km, 82.5° (Epoch: 21 March)

Event Time Altitude Azimuth Distance (km) Brightness Sun altitude
Rises 18:13:33 0° 190° (S) 2,847 7.2 -17.2°
Reaches altitude 10° 18:15:45 10° 192° (SSW) 1,948 6.3 -17.6°
Maximum altitude 18:20:04 80° 279° (W) 621 3.6 -18.4°
Drops below altitude 10° 18:24:25 10° 7° (N) 1,966 6.0 -19.1°
Sets 18:26:39 0° 8° (N) 2,877 6.8 -19.5°
